Weather observations for the past three days for
Long Beach, Long Beach Airport
Imperial (Metric)
Date Time (pdt) Wind (mph) Vis. (mi.) Weather Sky Cond. Temperature (ºF) Relative Humidity Wind Chill (°F) Heat Index (°F) Pressure Precipitation (in)
Air Dwpt 6 hour altimeter (in) sea level (mb) 1 hr 3 hr 6 hr
Max. Min.
23 19:53 NW 8 10.00 Fair CLR 75.9 61 60% 78 29.92 1013.1
23 18:53 NW 12 10.00 Fair CLR 79 60.1 52% 80 29.9 1012.5
23 17:53 W 8 10.00 Fair CLR 84.9 60.1 43% 85 29.88 1011.8
23 16:53 NW 9 10.00 Fair CLR 88 60.1 90 80.1 39% 88 29.88 1011.8
23 15:53 W 8 10.00 Fair CLR 89.1 62.1 41% 89 29.88 1011.7
23 14:53 S 8 10.00 Fair CLR 87.1 57.9 37% 86 29.88 1011.8
23 13:53 S 9 10.00 Fair CLR 82.9 61 48% 83 29.9 1012.3
23 12:53 S 10 10.00 Fair CLR 80.1 64 58% 82 29.91 1012.6
23 11:53 S 8 10.00 Fair CLR 82.9 63 51% 84 29.91 1012.7
23 10:53 Calm 10.00 Fair CLR 82.9 64 84.9 71.1 53% 84 29.91 1012.7
23 09:53 Calm 10.00 Fair CLR 80.1 64 58% 82 29.91 1012.6
23 08:53 N 5 10.00 Fair CLR 77 63 62% 79 29.91 1012.8
23 07:53 NW 3 10.00 Fair CLR 72 63 73% 29.9 1012.4
23 06:53 NW 5 10.00 Fair CLR 71.1 62.1 73% 29.88 1011.8
23 05:53 Calm 10.00 Fair CLR 71.1 63 76% 29.87 1011.3
23 04:53 Calm 10.00 Fair CLR 71.1 64 72 70 79% 29.87 1011.3
23 03:53 Calm 10.00 Fair CLR 71.1 64 79% 29.85 1010.6
23 02:53 Calm 10.00 Fair CLR 71.1 64 79% 29.86 1011.0
23 01:53 S 3 10.00 Fair CLR 71.1 64 79% 29.87 1011.3
23 00:53 S 3 10.00 Fair CLR 71.1 63 76% 29.87 1011.3
22 23:53 SE 3 10.00 Fair CLR 70 63 79% 29.87 1011.4
22 22:53 SE 5 10.00 Fair CLR 72 63 84.9 72 73% 29.87 1011.3
22 21:53 N 3 10.00 Fair CLR 75 59 58% 77 29.86 1010.9
22 20:53 NW 6 10.00 Fair CLR 75.9 60.1 58% 78 29.83 1010.2
22 19:53 NW 7 10.00 Fair CLR 77 60.1 56% 79 29.81 1009.5
22 18:53 W 10 10.00 Fair CLR 81 60.1 49% 82 29.8 1009.0
22 17:53 W 9 10.00 Fair CLR 84 55.9 38% 83 29.79 1008.7
22 16:53 NW 9 10.00 Fair CLR 84.9 61 89.1 77 45% 85 29.79 1008.7
22 15:53 NW 10 10.00 Fair CLR 86 59 40% 85 29.8 1009.1
22 14:53 W 7 10.00 Fair CLR 89.1 61 39% 89 29.81 1009.4
22 13:53 S 9 10.00 Fair CLR 84 59 43% 84 29.84 1010.4
22 12:53 S 9 10.00 Fair CLR 82 61 49% 83 29.85 1010.8
22 11:53 S 8 10.00 Fair CLR 80.1 62.1 54% 81 29.86 1011.0
22 10:53 S 8 10.00 Fair CLR 79 63 81 69.1 58% 81 29.86 1011.2
22 09:53 S 8 10.00 Fair CLR 80.1 64 58% 82 29.86 1011.1
22 08:53 Calm 10.00 Fair CLR 77 64 64% 79 29.86 1011.2
22 07:53 Calm 9.00 Fair CLR 72 64 76% 29.87 1011.2
22 06:53 Calm 9.00 Fair CLR 70 64 82% 29.86 1011.0
22 05:53 Calm 9.00 Fair CLR 69.1 63 81% 29.86 1010.9
22 04:53 Calm 10.00 Fair CLR 69.1 63 70 68 81% 29.85 1010.7
22 03:53 Calm 10.00 Fair CLR 68 63 84% 29.86 1010.9
22 02:53 Calm 9.00 Fair CLR 68 64 87% 29.86 1011.1
22 01:53 S 3 9.00 Fair CLR 69.1 64 84% 29.87 1011.4
22 00:53 S 3 10.00 Fair CLR 69.1 64 84% 29.87 1011.5
21 23:53 Calm 10.00 Fair CLR 69.1 63 81% 29.89 1011.9
21 22:53 S 3 10.00 Fair CLR 70 63 77 70 79% 29.89 1012.0
21 21:53 S 5 10.00 Fair CLR 70 64 82% 29.89 1012.1
21 20:53 S 6 10.00 Fair CLR 70 62.1 76% 29.88 1011.6
21 19:53 Vrbl 7 10.00 Fair CLR 71.1 62.1 73% 29.86 1011.1
21 18:53 Vrbl 7 10.00 Fair CLR 73 61 66% 29.85 1010.6
21 17:53 S 10 10.00 Fair CLR 75.9 63 64% 78 29.84 1010.5
21 16:53 S 12 10.00 Fair CLR 75.9 63 80.1 75.9 64% 78 29.86 1010.9
21 15:53 S 9 10.00 Fair CLR 77 63 62% 79 29.87 1011.5
21 14:53 S 12 10.00 Fair CLR 78.1 62.1 58% 80 29.89 1011.9
21 13:53 S 8 10.00 Fair CLR 77 62.1 60% 79 29.89 1012.2
21 12:53 S 12 10.00 Fair CLR 77 63 62% 79 29.9 1012.4
21 11:53 S 9 10.00 Fair CLR 79 62.1 56% 80 29.91 1012.7
21 10:53 S 8 10.00 Fair CLR 79 63 80.1 66.9 58% 81 29.91 1012.6
21 09:53 Vrbl 3 10.00 Fair CLR 79 63 58% 81 29.91 1012.9
21 08:53 Calm 10.00 Fair CLR 75 61 62% 77 29.91 1012.7
21 07:53 Calm 10.00 Fair CLR 72 63 73% 29.9 1012.3
21 06:53 Calm 8.00 Fair CLR 68 63 84% 29.88 1011.9
21 05:53 SE 3 9.00 Fair CLR 66.9 62.1 84% 29.87 1011.4
21 04:53 NE 3 10.00 Fair CLR 68 62.1 71.1 66.9 81% 29.86 1011.1
21 03:53 Calm 10.00 Fair CLR 68 62.1 81% 29.87 1011.4
21 02:53 SE 6 10.00 Fair CLR 69.1 62.1 78% 29.87 1011.5
21 01:53 NE 3 10.00 Fair CLR 71.1 60.1 68% 29.88 1011.7
21 00:53 E 3 10.00 Fair CLR 71.1 60.1 68% 29.9 1012.3
20 23:53 N 3 10.00 Fair CLR 71.1 60.1 68% 29.9 1012.3
20 22:53 NW 5 10.00 Fair CLR 71.1 59 82.9 71.1 66% 29.89 1012.1
20 21:53 NW 7 10.00 Fair CLR 72 60.1 66% 29.89 1012.0
20 20:53 NW 5 10.00 Fair CLR 73.9 61 64% 29.88 1011.6
Date Time (pdt) Wind (mph) Vis. (mi.) Weather Sky Cond. Air Dwpt Max. Min. Relative Humidity Wind Chill (°F) Heat Index (°F) altimeter (in) sea level (mb) 1 hr 3 hr 6 hr
6 hour
Temperature (ºF) Pressure Precipitation (in)